Weather observations for the past three days for
Shishmaref, Shishmaref Airport
| Date | Time (akdt) | Wind (mph) | Vis. (mi.) | Weather | Sky Cond. | Temperature (ºF) | Relative Humidity | Wind Chill (°F) | Heat Index (°F) | Pressure | Precipitation (in) | ||||||
|---|---|---|---|---|---|---|---|---|---|---|---|---|---|---|---|---|---|
| Air | Dwpt | 6 hour | altimeter (in) | sea level (mb) | 1 hr | 3 hr | 6 hr | ||||||||||
| Max. | Min. | ||||||||||||||||
| 06 | 11:56 | W 12 | 8.00 | Overcast | OVC003 | 19.9 | 18 | 92% | 9 | 30.09 | 1019.1 | ||||||
| 06 | 10:56 | W 14 | 1.50 | Light Snow Fog/Mist | OVC003 | 19 | 17.1 | 92% | 6 | 30.08 | 1018.7 | ||||||
| 06 | 09:56 | W 10 | 5.00 | Fog/Mist | BKN003 OVC006 | 18 | 16 | 19 | 17.1 | 92% | 7 | 30.08 | 1018.5 | ||||
| 06 | 08:56 | SW 8 | 10.00 | Overcast | OVC005 | 19 | 17.1 | 92% | 10 | 30.07 | 1018.3 | ||||||
| 06 | 07:56 | W 8 | 10.00 | Overcast | OVC005 | 18 | 17.1 | 96% | 9 | 30.06 | 1018.0 | ||||||
| 06 | 06:56 | W 8 | 10.00 | Overcast | OVC005 | 18 | 15.1 | 88% | 9 | 30.06 | 1017.9 | ||||||
| 06 | 05:56 | W 7 | 10.00 | Overcast | OVC007 | 17.1 | 15.1 | 92% | 8 | 30.05 | 1017.7 | ||||||
| 06 | 04:56 | W 10 | 10.00 | Overcast | OVC009 | 19 | 17.1 | 92% | 8 | 30.04 | 1017.2 | ||||||
| 06 | 03:56 | NW 7 | 10.00 | Overcast | OVC009 | 17.1 | 15.1 | 19.9 | 12.9 | 92% | 8 | 30.03 | 1017.1 | ||||
| 06 | 02:56 | W 9 | 10.00 | Mostly Cloudy | BKN011 | 14 | 12 | 92% | 3 | 30.03 | 1016.9 | ||||||
| 06 | 01:56 | W 10 | 10.00 | Fair | CLR | 14 | 12 | 92% | 2 | 30.02 | 1016.7 | ||||||
| 06 | 00:56 | W 8 | 10.00 | Mostly Cloudy | BKN050 | 17.1 | 15.1 | 92% | 7 | 30.02 | 1016.5 | ||||||
| 05 | 23:56 | W 8 | 10.00 | Partly Cloudy | SCT050 | 16 | 12.9 | 88% | 6 | 30.01 | 1016.3 | ||||||
| 05 | 22:56 | W 8 | 10.00 | Fair | CLR | 19.9 | 16 | 85% | 11 | 30.01 | 1016.2 | ||||||
| 05 | 21:56 | NW 8 | 10.00 | Fair | CLR | 23 | 19 | 27 | 23 | 85% | 15 | 30 | 1016.0 | ||||
| 05 | 20:56 | NW 8 | 10.00 | A Few Clouds | FEW010 | 24.1 | 19.9 | 84% | 16 | 30 | 1015.9 | ||||||
| 05 | 19:56 | W 10 | 10.00 | Overcast | OVC012 | 26.1 | 21 | 81% | 17 | 29.99 | 1015.6 | ||||||
| 05 | 18:56 | NW 13 | 10.00 | Mostly Cloudy | BKN010 | 27 | 21 | 78% | 17 | 29.99 | 1015.6 | ||||||
| 05 | 17:56 | NW 12 | 10.00 | Mostly Cloudy | BKN008 | 26.1 | 21 | 81% | 16 | 29.98 | 1015.3 | ||||||
| 05 | 16:56 | NW 13 | 10.00 | Mostly Cloudy | BKN008 | 26.1 | 21 | 81% | 16 | 29.98 | 1015.2 | ||||||
| 05 | 15:56 | NW 15 | 10.00 | Overcast | OVC010 | 26.1 | 21 | 28 | 25 | 81% | 15 | 29.97 | 1015.0 | ||||
| 05 | 14:56 | NW 14 | 10.00 | Overcast | BKN014 OVC019 | 26.1 | 19.9 | 78% | 15 | 29.98 | 1015.1 | ||||||
| 05 | 13:56 | NW 14 | 10.00 | Overcast | OVC018 | 27 | 21 | 78% | 16 | 29.97 | 1014.9 | ||||||
| 05 | 12:56 | NW 9 | 10.00 | Overcast | OVC016 | 27 | 21 | 78% | 19 | 29.97 | 1014.9 | ||||||
| 05 | 11:56 | NW 6 | 10.00 | Overcast | OVC016 | 26.1 | 19 | 75% | 20 | 29.97 | 1014.9 | ||||||
| 05 | 10:56 | NW 8 | 10.00 | Overcast | OVC014 | 25 | 19.9 | 81% | 17 | 29.97 | 1014.9 | ||||||
| 05 | 09:56 | W 8 | 10.00 | Overcast | OVC016 | 25 | 19.9 | 25 | 24.1 | 81% | 17 | 29.97 | 1015.0 | ||||
| 05 | 08:56 | N 6 | 10.00 | Overcast | OVC016 | 25 | 19.9 | 81% | 19 | 29.97 | 1014.9 | ||||||
| 05 | 07:56 | N 7 | 10.00 | Overcast | OVC016 | 25 | 19.9 | 81% | 18 | 29.97 | 1014.9 | ||||||
| 05 | 06:56 | N 6 | 10.00 | Overcast | OVC014 | 25 | 21 | 85% | 19 | 29.97 | 1014.9 | ||||||
| 05 | 05:56 | W 7 | 10.00 | Overcast | OVC014 | 24.1 | 19.9 | 84% | 17 | 29.97 | 1014.9 | ||||||
| 05 | 04:56 | NW 7 | 10.00 | Overcast | OVC012 | 25 | 21 | 85% | 18 | 29.97 | 1014.8 | ||||||
| 05 | 03:56 | NW 6 | 10.00 | Overcast | OVC012 | 24.1 | 21 | 27 | 24.1 | 88% | 18 | 29.98 | 1015.2 | ||||
| 05 | 02:56 | N 7 | 10.00 | Overcast | OVC012 | 24.1 | 21 | 88% | 17 | 29.99 | 1015.6 | ||||||
| 05 | 01:56 | W 5 | 10.00 | Overcast | OVC012 | 25 | 21 | 85% | 20 | 30 | 1015.9 | ||||||
| 05 | 00:56 | W 3 | 10.00 | Overcast | OVC012 | 25 | 21 | 85% | 30.01 | 1016.4 | |||||||
| 04 | 23:56 | NW 7 | 10.00 | Overcast | OVC012 | 26.1 | 21 | 81% | 19 | 30.02 | 1016.7 | ||||||
| 04 | 22:56 | N 6 | 10.00 | Overcast | OVC012 | 26.1 | 21.9 | 84% | 20 | 30.03 | 1016.9 | ||||||
| 04 | 21:56 | Vrbl 3 | 10.00 | Overcast | OVC014 | 27 | 21.9 | 33.1 | 27 | 81% | 30.03 | 1017.0 | |||||
| 04 | 20:56 | W 6 | 10.00 | Overcast | OVC014 | 28 | 23 | 81% | 22 | 30.04 | 1017.2 | ||||||
| 04 | 19:56 | NW 6 | 10.00 | Overcast | OVC014 | 28.9 | 23 | 78% | 23 | 30.04 | 1017.3 | ||||||
| 04 | 18:56 | W 6 | 10.00 | Overcast | OVC014 | 30.9 | 24.1 | 76% | 26 | 30.05 | 1017.6 | ||||||
| 04 | 17:56 | NW 6 | 10.00 | Partly Cloudy | SCT016 | 32 | 23 | 69% | 27 | 30.06 | 1018.1 | ||||||
| 04 | 16:56 | W 6 | 10.00 | Overcast | OVC016 | 32 | 23 | 69% | 27 | 30.08 | 1018.7 | ||||||
| 04 | 15:56 | W 9 | 10.00 | Overcast | OVC016 | 30.9 | 25 | 33.1 | 26.1 | 79% | 24 | 30.09 | 1019.0 | ||||
| 04 | 14:56 | W 7 | 10.00 | Overcast | OVC022 | 32 | 26.1 | 79% | 26 | 30.1 | 1019.4 | ||||||
| 04 | 13:56 | W 8 | 10.00 | Overcast | SCT007 OVC020 | 28.9 | 26.1 | 89% | 22 | 30.11 | 1019.7 | ||||||
| 04 | 12:56 | W 10 | 10.00 | Overcast | BKN005 OVC021 | 28 | 25 | 88% | 19 | 30.11 | 1019.8 | ||||||
| 04 | 11:56 | W 9 | 10.00 | Overcast | OVC007 | 28 | 25 | 88% | 20 | 30.12 | 1020.1 | ||||||
| 04 | 10:56 | W 12 | 10.00 | Overcast | BKN005 OVC011 | 27 | 24.1 | 89% | 17 | 30.12 | 1020.0 | ||||||
| 04 | 09:56 | W 9 | 10.00 | Overcast | OVC011 | 26.1 | 24.1 | 26.1 | 21 | 92% | 18 | 30.12 | 1020.1 | ||||
| 04 | 08:56 | SW 9 | 10.00 | Overcast | OVC007 | 24.1 | 21.9 | 91% | 15 | 30.12 | 1019.9 | ||||||
| 04 | 07:56 | W 13 | 10.00 | Overcast | OVC007 | 25 | 23 | 92% | 14 | 30.11 | 1019.8 | ||||||
| 04 | 06:56 | W 14 | 10.00 | Overcast | OVC005 | 24.1 | 21.9 | 91% | 13 | 30.11 | 1019.7 | ||||||
| 04 | 05:56 | W 15 | 10.00 | Overcast | SCT009 BKN023 OVC048 | 23 | 19.9 | 88% | 11 | 30.11 | 1019.6 | ||||||
| 04 | 04:56 | SW 9 | 9.00 | Light Snow | FEW015 SCT037 BKN048 | 21.9 | 19 | 89% | 13 | 30.11 | 1019.6 | ||||||
| 04 | 03:56 | SW 9 | 10.00 | A Few Clouds | FEW048 | 21 | 19 | 28.9 | 21 | 92% | 11 | 30.1 | 1019.3 | ||||
| 04 | 02:56 | SW 12 | 10.00 | Overcast | OVC042 | 26.1 | 21.9 | 84% | 16 | 30.1 | 1019.2 | ||||||
| 04 | 01:56 | SW 10 | 10.00 | Overcast | OVC042 | 27 | 23 | 85% | 18 | 30.09 | 1019.0 | ||||||
| 04 | 00:56 | SW 12 | 9.00 | Overcast | OVC042 | 28 | 24.1 | 85% | 19 | 30.09 | 1018.9 | ||||||
| 03 | 23:56 | SW 10 | 9.00 | Light Snow | OVC044 | 28 | 24.1 | 85% | 19 | 30.08 | 1018.6 | ||||||
| 03 | 22:56 | SW 8 | 10.00 | Overcast | OVC040 | 28 | 24.1 | 85% | 21 | 30.07 | 1018.4 | ||||||
| 03 | 21:56 | SW 12 | 10.00 | Overcast | OVC028 | 28.9 | 25 | 32 | 28.9 | 85% | 20 | 30.06 | 1018.1 | ||||
| 03 | 20:56 | SW 13 | 10.00 | Overcast | OVC030 | 30.9 | 25 | 79% | 22 | 30.07 | 1018.2 | ||||||
| 03 | 19:56 | SW 14 | 10.00 | Overcast | OVC034 | 30.9 | 25 | 79% | 21 | 30.06 | 1018.1 | ||||||
| 03 | 18:56 | W 15 | 10.00 | Overcast | FEW015 BKN022 OVC028 | 30.9 | 26.1 | 82% | 21 | 30.06 | 1017.9 | ||||||
| 03 | 17:56 | S 17 | 10.00 | Overcast | OVC030 | 32 | 25 | 75% | 22 | 30.06 | 1017.8 | ||||||
| 03 | 16:56 | S 18 | 10.00 | Overcast | OVC028 | 32 | 25 | 75% | 21 | 30.06 | 1018.0 | ||||||
| 03 | 15:56 | SW 16 | 10.00 | Overcast | BKN017 OVC028 | 30.9 | 27 | 30.9 | 27 | 85% | 21 | 30.06 | 1017.9 | ||||
| 03 | 14:56 | SW 20 | 10.00 | Overcast | BKN021 OVC060 | 30.9 | 26.1 | 82% | 20 | 30.06 | 1017.9 | ||||||
| 03 | 13:56 | S 20 | 10.00 | Overcast | OVC017 | 30.9 | 26.1 | 82% | 20 | 30.06 | 1018.1 | ||||||
| 03 | 12:56 | S 14 | 9.00 | Light Snow | OVC015 | 30 | 26.1 | 85% | 20 | 30.06 | 1017.8 | ||||||
| Date | Time (akdt) | Wind (mph) | Vis. (mi.) | Weather | Sky Cond. | Air | Dwpt | Max. | Min. | Relative Humidity | Wind Chill (°F) | Heat Index (°F) | altimeter (in) | sea level (mb) | 1 hr | 3 hr | 6 hr |
| 6 hour | |||||||||||||||||
| Temperature (ºF) | Pressure | Precipitation (in) | |||||||||||||||